Ireland West Airport Knock, Ireland

11:32 PM IST on July 29, 2016 (GMT +0100)
Ireland West Airport Knock

Weather History for 03973 - November, 2012

Change the Weather History Date:

Monday, November 5, 2012

  Actual Average Record
Temperature  
Mean Temperature 42 °F -  
Max Temperature 48 °F - - ()
Min Temperature 36 °F - - ()
Degree Days  
Heating Degree Days 23    
Moisture  
Dew Point 40 °F    
Average Humidity 87    
Maximum Humidity 100    
Minimum Humidity 71    
Precipitation  
Precipitation 0.01 in - - ()
Sea Level Pressure  
Sea Level Pressure 29.93 in    
Wind  
Wind Speed 8 mph ()    
Max Wind Speed 16 mph    
Max Gust Speed 29 mph    
Visibility 7.2 miles    
Events Rain    
T = Trace of Precipitation, MM = Missing Value Source: Averaged Metar Reports

Daily Weather History Graph

Daily Weather History Graph

Search for Another Location

Airport or City:

Trip Planner

Search our weather history database for the weather conditions in past years. The results will help you decide how hot, cold, wet, or windy it might be!

Date:

Astronomy

Nov. 05, 2012 Rise Set
Actual Time 7:44 AM GMT 4:52 PM GMT
Civil Twilight 7:05 AM GMT 5:30 PM GMT
Nautical Twilight 6:23 AM GMT 6:13 PM GMT
Astronomical Twilight 5:42 AM GMT 6:54 PM GMT
Moon 10:15 PM GMT (11/5) 12:59 PM GMT (11/5)
Length of Visible Light 10h 24m
Length of Day
9h 08m
Waning Gibbous, 65% of the Moon is Illuminated
Nov 5
Waning Gibbous
Nov 7
Last Quarter
Nov 13
New
Nov 20
First Quarter
Nov 28
Full

Hourly Weather History & Observations

Time (GMT) Temp. Windchill Dew Point Humidity Pressure Visibility Wind Dir Wind Speed Gust Speed Precip Events Conditions
12:00 AM 38 °F - 37 °F 93% 29.64 in - NNE 8.9 mph - -  
6:00 AM 38 °F - 35 °F 86% 29.83 in 16 mi NNW 6.7 mph - -   Scattered Clouds
8:00 AM 39.2 °F 33.6 °F 37.4 °F 93% 29.86 in 6.2 mi WNW 8.1 mph - N/A   Scattered Clouds
8:30 AM 39.2 °F 33.6 °F 37.4 °F 93% 29.86 in 6.2 mi West 8.1 mph - N/A   Scattered Clouds
9:00 AM 39.2 °F 32.5 °F 39.2 °F 100% 29.86 in 6.2 mi West 10.4 mph - N/A   Scattered Clouds
9:30 AM 41.0 °F 37.1 °F 39.2 °F 93% 29.89 in 6.2 mi WNW 5.8 mph - N/A   Scattered Clouds
10:00 AM 41.0 °F 38.0 °F 39.2 °F 93% 29.89 in 6.2 mi WNW 4.6 mph - N/A   Mostly Cloudy
10:30 AM 41.0 °F 36.4 °F 39.2 °F 93% 29.89 in 6.2 mi WNW 6.9 mph - N/A   Mostly Cloudy
11:00 AM 42.8 °F 38.0 °F 39.2 °F 87% 29.92 in 6.2 mi NW 8.1 mph - N/A   Scattered Clouds
11:30 AM 44.6 °F 39.7 °F 41.0 °F 87% 29.92 in 6.2 mi WNW 9.2 mph - N/A   Scattered Clouds
12:00 PM 46 °F - 41 °F 76% 29.96 in 28 mi NW 8.9 mph - -   Partly Cloudy
12:00 PM 46.4 °F 42.4 °F 41.0 °F 81% 29.92 in 6.2 mi NW 8.1 mph - N/A   Partly Cloudy
12:30 PM 46.4 °F 41.1 °F 41.0 °F 81% 29.92 in 6.2 mi NW 11.5 mph - N/A   Partly Cloudy
1:00 PM 48.2 °F - 39.2 °F 71% 29.95 in 6.2 mi NW 16.1 mph - N/A   Scattered Clouds
1:30 PM 46.4 °F 41.5 °F 41.0 °F 81% 29.95 in 6.2 mi NW 10.4 mph - N/A   Scattered Clouds
2:00 PM 46.4 °F 40.4 °F 39.2 °F 76% 29.95 in 6.2 mi NNW 13.8 mph - N/A   Partly Cloudy
2:30 PM 44.6 °F 37.8 °F 41.0 °F 87% 29.95 in 6.2 mi NNW 15.0 mph - N/A Rain Light Rain Showers
3:00 PM 44.6 °F 37.4 °F 41.0 °F 87% 29.98 in 6.2 mi NW 16.1 mph 28.8 mph N/A Rain Light Rain Showers
3:30 PM 44.6 °F 39.7 °F 41.0 °F 87% 29.98 in 6.2 mi NNW 9.2 mph - N/A   Partly Cloudy
4:00 PM 44.6 °F 39.2 °F 41.0 °F 87% 30.01 in 6.2 mi NW 10.4 mph - N/A Rain Light Rain Showers
4:30 PM 42.8 °F 38.0 °F 41.0 °F 93% 30.01 in 6.2 mi NW 8.1 mph - N/A   Partly Cloudy
5:00 PM 42.8 °F 36.6 °F 39.2 °F 87% 30.04 in 6.2 mi NNW 11.5 mph - N/A Rain Light Rain Showers
5:30 PM 41.0 °F 36.4 °F 39.2 °F 93% 30.04 in 6.2 mi NW 6.9 mph - N/A   Partly Cloudy
6:00 PM 42 °F - 39 °F 87% 30.08 in 19 mi WNW 8.9 mph - - Rain Light Rain Showers
6:00 PM 41.0 °F 35.8 °F 39.2 °F 93% 30.04 in 6.2 mi WNW 8.1 mph - N/A   Scattered Clouds